Regional Weather Roundup
Issued by NWS New Orleans/Baton Rouge, LA

Home | Current Version | Previous Version | Graphics & Text | Print | Product List | Glossary On
Versions: 1 2 3 4 5 6 7 8 9 10 11 12 13 14 15 16 17 18 19 20 21 22 23 24 25 26 27 28 29 30 31 32 33 34 35 36 37 38 39 40 41 42 43 44 45 46 47 48 49 50
803
ASUS44 KLIX 282105
RWRLIX
NEW ORLEANS REGIONAL WEATHER ROUNDUP
NATIONAL WEATHER SERVICE NEW ORLEANS LA
400 PM CDT THU AUG 28 2014

NOTE: "FAIR" INDICATES FEW OR NO CLOUDS BELOW 12,000 FEET WITH NO
      SIGNIFICANT WEATHER AND/OR OBSTRUCTIONS TO VISIBILITY.
      SKY/WX - SKY CONDITION AND SIGNIFICANT WEATHER.
      TMP - AIR TEMPERATURE.     DP    - DEWPOINT TEMPERATURE.
      RH  - RELATIVE HUMIDITY.   PRES  - PRESSURE.
      HI  - HEAT INDEX.          WCI   - WIND CHILL INDEX.

*  THESE STATIONS ARE NOT NWS OR FAA STATIONS AND ARE NOT UNDER
   NWS QUALITY CONTROL.

LAZ038-040-048-061>063-065>067-069-282200-
SOUTHEAST LOUISIANA

CITY           SKY/WX    TMP DP  RH WIND       PRES   REMARKS
N.O. AUDUBON     N/A     93  69  45 MISG        N/A  HX  98
N.O. INTL ARPT PTSUNNY   92  67  43 VRB7      29.93F HX  95
N.O. LAKEFRONT PTSUNNY   90  72  55 E10       29.94F HX  97
N.O. DOWNTOWN* MOCLDY    93  70  46 S7        29.94F HX  99
SLIDELL        PTSUNNY   89  71  55 SE9       29.94F HX  95
BATON ROUGE    PTSUNNY   86  74  67 E7        29.94F
BOOTHVILLE     MOSUNNY   88  73  61 E9G18     29.95F HX  95
BELLE CHASSE   PTSUNNY   89  69  51 SE10      29.93F
BOGALUSA*        N/A     90  71  52 S7        29.96S HX  96
GALLIANO*      NOT AVBL
NEW ROADS*     CLOUDY    88  74  62 E5        29.93F HX  96
GONZALES*        N/A     90  75  61 NE7       29.92F HX 101
HAMMOND*       PTSUNNY   90  68  48 SE8       29.96F
HOUMA*         MOSUNNY   91  68  46 E9        29.93F HX  95
PORT FOURCHON* CLEAR     88  72  58 E13G18    29.95S

$$

MSZ070-080>082-282200-
SOUTHERN MISSISSIPPI

CITY           SKY/WX    TMP DP  RH WIND       PRES   REMARKS
MCCOMB         CLOUDY    90  69  50 SW8       29.95F
GULFPORT       PTSUNNY   88  72  58 S9        29.94F
BILOXI         PTSUNNY   88  71  57 SE6       29.95F
PASCAGOULA     CLOUDY    85  73  67 S3        29.96F
STENNIS ARPT*  MOSUNNY  N/A N/A N/A S6        29.95F

$$

COASTAL OBSERVATIONS
LAKE AND NEARSHORE STATIONS

STATION/POSITION TIME  TEMP    WIND        PRES    WAVE
                       AIR SEA DIR/SP/G            HT/PER
                 (UTC) (F)     (DEG/KT/KT) (MB)    (FT/S)
PASCAGOULA       2100   86     180/  4/  7 1014.0
WAVELAND YACHT   2100   84     150/  8/ 11 1013.6
GRAND ISLE       2100   89 84  100/  8/ 13 1014.4
SOUTHWEST PASS   2100   92 90   90/ 18/ 20 1014.1
NEW CANAL        2100   89 85   80/  7/ 15 1014.1
SHELL BEACH      2100   86 82  100/ 10/ 13 1013.8

OFFSHORE STATIONS

STATION/POSITION TIME  TEMP    WIND        PRES    WAVE
                       AIR SEA DIR/SP/G            HT/PER
                 (UTC) (F)     (DEG/KT/KT) (MB)    (FT/S)

$$




USA.gov is the U.S. government's official web portal to all federal, state and local government web resources and services.